Miscellaneous Local Product
Issued by NWS Hastings, NE

Home | Current Version | Previous Version | Graphics & Text | Print | Product List | Glossary Off
Versions: 1 2 3 4 5 6 7 8 9 10 11 12 13 14 15 16 17 18 19 20 21 22 23 24 25 26 27 28 29 30 31 32 33 34 35 36 37 38 39 40 41 42 43 44 45 46 47 48 49 50

000
AXUS43 KGID 211102
MISGRI

GID CWA HOURLY WEATHER ROUNDUP
NATIONAL WEATHER SERVICE HASTINGS NE
600 AM CDT SAT OCT 21 2017

NOTE: "FAIR" INDICATES FEW OR NO CLOUDS BELOW 12,000 FEET WITH NO
SIGNIFICANT WEATHER AND/OR OBSTRUCTIONS TO VISIBILITY.

...SOUTH CENTRAL NEBRASKA...

CITY           SKY/WX    TMP DP  RH WIND       PRES   REMARKS
GRAND ISLAND   PTCLDY    67  62  84 S23       29.51S
KEARNEY        CLOUDY    65  60  84 S22G29    29.50R
HASTINGS       MOCLDY    67  60  78 S18G29    29.53R
ORD            CLOUDY    63  60  90 SW5       29.49R
YORK           CLOUDY    68  63  83 S21G31    29.55S
AURORA         MOCLDY    68  61  79 S23G29    29.52S
LEXINGTON      PTCLDY    64  56  77 S9        29.49R
HOLDREGE       CLOUDY    64  60  87 S15       29.52R
HEBRON         CLOUDY    70  63  77 S25G33    29.58S

...NEBRASKA PANHANDLE...

CITY           SKY/WX    TMP DP  RH WIND       PRES   REMARKS
CHADRON        CLOUDY    49  26  41 W26G40    29.66R
ALLIANCE       CLOUDY    50  19  29 NW23G35   29.68R
SCOTTSBLUFF    CLOUDY    49  21  33 W24G33    29.72R
SIDNEY         CLOUDY    48  20  32 NW23G30   29.73R

...WESTERN AND NORTH CENTRAL NEBRASKA...

CITY           SKY/WX    TMP DP  RH WIND       PRES   REMARKS
VALENTINE      MOCLDY    58  41  53 NW20G28   29.55R
AINSWORTH      PTCLDY    57  50  78 NW13      29.52R
ONEILL         CLOUDY    62  60  91 S7        29.49S
BROKEN BOW     PTCLDY    60  56  86 S7        29.49R
IMPERIAL       CLOUDY    53  34  48 NW20G29   29.63R
NORTH PLATTE   PTCLDY    54  52  93 NW10      29.52R
MCCOOK         CLEAR     58  42  55 W18G35    29.53R

...EASTERN NEBRASKA...

CITY           SKY/WX    TMP DP  RH WIND       PRES   REMARKS
NORFOLK        CLOUDY    69  61  75 S20G32    29.50R
SO SIOUX CITY  CLOUDY    66  61  84 SE14      29.55S
TEKAMAH        CLOUDY    67  60  78 S16G23    29.59S
COLUMBUS       CLOUDY    70  62  76 S26G36    29.52S
ALBION         CLOUDY    69  62  78 S16G24    29.50R
OMAHA EPPLEY   TSTM      65  60  84 S17       29.62S
OFFUTT AFB     MOCLDY    67  61  81 S21G29    29.62S
MILLARD        CLOUDY    67  63  86 SE14      29.62S
LINCOLN        CLOUDY    69  61  75 S23G37    29.59R
NEBRASKA CITY  CLOUDY    67  64  89 S23G32    29.66S
BEATRICE       CLOUDY    68  62  81 S22G31    29.61F
FALLS CITY     CLOUDY    67  60  78 S20G29    29.70F

...NORTHERN KANSAS...

CITY           SKY/WX    TMP DP  RH WIND       PRES   REMARKS
GOODLAND       CLOUDY    52  33  48 NW16G30   29.65R
HILL CITY      CLOUDY    66  58  75 S16G28    29.56R
NORTON         SUNNY     63  54  72 S15G23    29.51R
PHILLIPSBURG   CLEAR     66  59  77 S23G33    29.53R
SMITH CENTER   PTCLDY    66  59  77 S24G32    29.54R
HAYS           CLOUDY    66  60  81 S25G33    29.57R
RUSSELL        CLOUDY    67  63  87 S28G43    29.58R
CONCORDIA      LGT RAIN  68  63  84 S25G37    29.61R
SALINA         CLEAR     70  64  81 S20G35    29.65F
TOPEKA         CLOUDY    68  61  78 S22G32    29.76F



USA.gov is the U.S. government's official web portal to all federal, state and local government web resources and services.